[Date Prev][Date Next][Thread Prev][Thread Next] - [Date Index][Thread Index][Author Index]

2 Line ISS Keps 9-30



ISS
1 25544U 98067A   06272.97225694  .00062462  00000-0  38548-3 0  7686
2 25544 051.6375 007.6764 0013198 038.8477 300.2048 15.76416158449680
----
Sent via sarex@amsat.org. Opinions expressed are those of the author.
Not an AMSAT member? Join now to support the amateur satellite program!
Subscription settings: http://amsat.org/mailman/listinfo/sarex



AMSAT Top AMSAT Home